Wetbulb
46.82 47.75 47.98 49.49 62.82 66.53 65.47 66.71 67.81 68.03 67.54 67.76 67.49 66.91 65.72 65.09 64.34 64.29 64.32 64.04 63.98 64.32 65.51 65.79 66.22 65.91 65.34 64.64 63.72 63.71 63.37 62.01
47.75 49.22 49.59 51.77 56.56 65.82 65.05 65.77 66.16 67.44 66.48 65.99 66.07 65.18 64.99 64.34 63.76 63.97 62.97 63.37 63.46 63.44 64.67 64.84 65.57 65.42 65.18 64.32 63.31 61.73 59.54 58.20
44.66 46.41 47.20 48.23 50.94 65.12 65.30 65.75 65.45 66.52 66.64 67.11 66.78 65.98 65.97 64.90 64.32 64.02 63.83 63.48 63.61 63.49 63.20 64.21 64.78 65.26 64.83 63.84 62.53 60.16 57.67 59.05
39.85 42.44 43.71 45.83 47.58 50.68 64.57 65.67 65.60 65.94 66.72 67.00 66.33 66.69 66.22 64.61 64.23 63.57 63.96 64.64 64.04 63.27 62.43 64.34 64.78 65.42 64.29 63.56 62.25 59.97 57.20 58.54
38.63 39.71 40.81 42.78 44.40 47.72 51.46 65.01 65.80 65.84 66.80 65.86 65.21 64.69 63.54 64.24 64.21 63.87 63.49 64.35 64.18 61.66 61.96 64.35 65.05 65.26 64.47 63.45 62.89 59.95 58.90 58.00
36.44 37.63 39.84 41.84 43.16 44.69 48.72 59.16 64.91 65.45 66.08 65.94 64.98 64.59 64.77 64.89 63.98 62.99 62.97 63.78 64.34 64.20 64.25 63.92 64.32 65.22 64.85 63.78 62.03 60.10 59.91 59.46
35.73 37.47 39.69 40.30 42.33 43.60 45.91 50.73 58.92 64.63 65.30 65.15 64.37 64.38 64.44 64.05 63.09 61.84 62.13 62.93 62.64 63.78 64.20 64.09 64.28 64.29 64.29 64.03 62.62 61.47 60.47 60.39
34.64 35.27 36.36 39.04 40.48 42.90 46.03 48.80 53.03 56.15 64.22 64.32 64.16 63.61 64.58 63.76 62.37 61.77 61.05 60.73 61.00 61.61 61.86 62.64 64.15 63.94 64.83 64.25 62.67 62.29 61.56 60.30
34.50 35.43 36.33 38.39 40.24 42.52 44.92 47.26 50.36 53.82 56.43 62.40 64.25 64.00 63.71 64.67 63.22 62.45 61.29 61.14 60.80 61.18 61.10 61.95 63.47 63.87 65.21 64.31 63.48 63.06 62.60 61.83
34.20 35.15 36.42 37.74 39.35 40.86 43.41 44.97 47.23 50.61 54.47 55.04 62.66 63.80 63.48 63.68 64.42 63.48 62.08 61.79 61.78 61.37 61.42 61.38 62.13 64.34 65.28 64.40 63.72 62.91 63.48 63.39
32.65 34.73 36.03 37.42 38.54 40.77 41.84 44.26 45.12 47.91 51.22 54.94 63.15 62.80 63.28 63.26 64.62 64.06 63.14 61.95 61.75 61.62 61.48 61.17 61.83 63.58 64.46 64.64 63.92 63.96 63.43 63.72
31.73 34.35 35.86 36.79 38.01 39.63 40.20 43.04 43.72 45.94 48.80 52.14 61.43 62.75 62.84 63.01 63.09 64.73 63.84 63.58 62.64 62.22 61.96 61.72 61.88 61.92 62.91 64.16 63.96 64.03 63.41 63.58
31.35 32.41 35.14 35.48 36.58 38.46 39.01 40.66 43.00 44.89 46.29 49.34 57.22 63.00 62.44 62.45 63.18 62.51 64.63 63.44 63.24 63.02 62.79 62.13 62.49 61.90 63.13 62.51 62.40 63.91 63.32 62.95
30.76 31.71 33.56 34.36 35.75 37.19 38.22 39.65 41.22 43.81 45.42 49.07 56.60 62.62 61.65 62.19 63.26 61.98 62.92 63.86 63.35 63.14 63.04 62.43 62.51 62.41 62.06 62.74 62.38 62.54 63.63 63.50
29.25 30.82 31.93 34.29 35.38 36.58 37.46 38.53 40.16 43.01 44.29 46.19 50.71 57.88 61.59 61.83 63.56 62.84 61.31 62.49 63.22 62.73 62.80 63.20 63.12 63.25 62.62 62.68 62.12 62.02 61.98 63.04
28.39 28.88 30.77 33.14 34.21 35.40 37.01 37.13 38.64 41.76 42.80 44.24 47.02 52.26 56.19 62.24 62.28 62.51 61.69 60.89 62.06 62.87 62.63 62.87 63.36 63.54 63.47 62.61 62.38 61.40 61.58 62.01
28.62 29.32 30.68 32.63 33.54 34.52 36.90 36.18 37.36 40.07 41.83 41.60 45.08 48.12 51.27 57.74 62.37 62.13 61.23 60.88 60.51 61.19 60.54 62.17 62.58 62.97 53.51 51.39 58.74 61.98 61.78 61.67
27.64 29.66 30.42 32.80 33.46 35.09 34.74 36.21 37.36 38.53 40.34 41.13 41.87 44.35 45.88 48.61 56.71 61.60 61.18 60.15 60.15 59.54 59.84 60.19 61.75 62.50 49.16 49.00 49.35 62.57 62.01 62.21
28.50 30.25 30.96 33.13 34.13 35.18 35.73 36.71 36.21 37.42 39.03 40.10 40.77 41.55 42.88 44.08 47.76 59.19 60.81 60.82 59.94 59.40 59.41 58.92 60.09 61.74 47.63 46.91 46.36 62.18 61.93 62.21
MSLP
1003.98 1003.22 1001.61 1000.95 1002.09 1002.92 1003.48 1004.34 1005.18 1006.65 1007.61 1008.95 1009.96 1010.73 1011.44 1012.15 1012.80 1012.71 1013.97 1013.84 1014.07 1014.38 1015.11 1015.68 1016.24 1017.00 1017.93 1018.61 1019.34 1020.00 1020.59 1021.28
1006.64 1006.81 1005.66 1003.63 1002.10 1002.31 1003.33 1004.02 1004.89 1005.95 1007.40 1008.36 1009.27 1009.97 1010.89 1011.84 1012.63 1013.46 1013.64 1014.31 1014.50 1014.88 1015.00 1015.55 1015.88 1016.63 1017.57 1018.44 1019.24 1019.91 1021.11 1021.74
1008.44 1008.15 1007.43 1006.53 1004.24 1001.99 1002.27 1002.96 1004.10 1004.84 1006.14 1007.20 1008.44 1009.55 1010.47 1011.34 1012.25 1013.11 1013.59 1013.93 1014.20 1014.14 1014.80 1015.80 1015.63 1016.43 1017.42 1018.00 1019.02 1019.96 1020.88 1021.33
1010.78 1010.10 1009.62 1008.73 1007.16 1006.35 1003.15 1002.49 1003.02 1003.98 1005.05 1006.53 1008.38 1009.41 1010.24 1010.98 1011.60 1012.46 1013.31 1013.60 1013.66 1013.92 1014.56 1014.96 1015.36 1015.94 1017.10 1017.54 1018.61 1019.04 1020.14 1020.94
1012.79 1011.99 1011.04 1010.19 1009.05 1007.76 1006.46 1004.06 1002.36 1003.04 1003.98 1005.32 1007.06 1008.10 1008.91 1009.67 1010.76 1011.77 1012.61 1012.93 1012.95 1014.10 1014.28 1014.20 1014.62 1015.85 1016.68 1017.32 1017.79 1018.58 1019.09 1019.93
1014.46 1013.94 1013.08 1011.83 1010.40 1009.03 1007.57 1005.71 1003.64 1002.32 1003.23 1003.79 1005.00 1007.08 1007.80 1009.12 1010.16 1011.06 1011.99 1012.46 1012.64 1013.63 1014.03 1014.31 1014.61 1015.46 1016.28 1016.98 1017.63 1018.14 1018.32 1018.81
1016.16 1015.63 1014.33 1012.82 1011.04 1009.73 1008.66 1007.44 1006.09 1002.87 1002.26 1002.91 1003.96 1005.48 1007.16 1008.15 1009.37 1010.22 1011.03 1011.75 1012.57 1013.11 1013.60 1013.97 1014.30 1015.06 1016.07 1016.38 1016.56 1017.15 1017.78 1018.20
1017.11 1015.56 1014.24 1013.16 1011.41 1010.21 1009.60 1008.83 1007.35 1006.61 1003.31 1002.36 1003.10 1004.39 1005.64 1006.92 1007.89 1008.75 1009.69 1010.75 1011.53 1011.98 1012.11 1013.26 1013.28 1014.01 1014.41 1015.06 1015.65 1016.21 1016.75 1017.37
1018.07 1016.84 1015.52 1013.91 1012.45 1010.97 1010.04 1009.73 1007.50 1006.57 1005.62 1004.87 1002.55 1002.98 1004.13 1005.89 1006.97 1007.93 1008.57 1009.16 1009.81 1010.41 1011.32 1012.32 1012.52 1013.03 1013.83 1014.05 1014.83 1015.75 1016.18 1016.53
1018.80 1017.60 1016.46 1014.81 1013.14 1011.76 1010.53 1009.43 1008.80 1006.75 1006.70 1005.54 1004.52 1003.34 1003.52 1004.55 1005.77 1006.93 1007.62 1008.17 1008.75 1009.69 1010.46 1011.21 1011.80 1012.24 1012.91 1013.16 1013.96 1014.83 1015.45 1015.96
1019.51 1018.09 1016.62 1015.26 1014.00 1012.36 1010.85 1010.15 1008.76 1007.76 1006.61 1005.45 1004.25 1003.61 1003.26 1003.84 1004.82 1005.94 1006.64 1007.23 1007.90 1008.41 1009.41 1009.98 1010.68 1010.92 1011.71 1012.56 1013.40 1014.22 1014.66 1015.28
1019.80 1018.48 1016.90 1015.75 1014.56 1012.95 1011.36 1009.93 1009.29 1008.44 1007.84 1005.73 1004.09 1003.28 1003.44 1003.51 1003.90 1004.65 1005.56 1006.23 1006.96 1007.42 1008.19 1008.83 1009.42 1010.10 1010.68 1011.67 1012.57 1013.32 1013.89 1014.46
1020.53 1018.60 1016.72 1015.38 1014.33 1013.14 1011.91 1010.69 1009.49 1008.30 1007.12 1005.67 1004.05 1002.88 1003.29 1003.40 1003.49 1003.59 1004.32 1004.81 1005.84 1006.38 1007.13 1007.94 1008.47 1008.84 1009.73 1010.63 1011.48 1012.05 1012.76 1013.58
1020.21 1018.25 1016.64 1015.65 1014.50 1013.59 1012.65 1011.63 1010.36 1008.97 1007.51 1005.75 1003.64 1002.79 1002.69 1002.73 1002.96 1003.16 1003.53 1003.88 1004.83 1005.62 1006.25 1006.88 1007.63 1008.05 1008.67 1009.55 1010.07 1010.79 1011.66 1012.39
1020.69 1019.10 1018.04 1016.75 1015.83 1014.67 1013.54 1012.62 1011.53 1010.12 1008.41 1006.56 1004.78 1003.45 1002.29 1002.32 1002.14 1002.32 1002.72 1003.15 1003.78 1004.59 1005.27 1005.91 1006.66 1007.31 1007.83 1008.57 1009.29 1010.19 1010.93 1011.53
1021.02 1019.79 1019.14 1018.16 1017.08 1015.82 1014.63 1013.42 1012.36 1011.33 1009.87 1007.70 1005.85 1004.03 1003.06 1001.67 1001.63 1001.63 1002.01 1002.42 1002.99 1003.70 1004.38 1005.08 1005.92 1006.46 1007.05 1007.79 1008.47 1009.35 1010.15 1010.69
1021.61 1021.18 1020.32 1019.21 1018.11 1017.20 1016.00 1014.81 1013.73 1012.84 1011.20 1009.30 1007.46 1004.70 1002.01 1000.96 1001.35 1001.57 1001.53 1001.72 1002.25 1003.02 1003.67 1004.22 1005.06 1005.67 1006.14 1006.91 1007.63 1008.32 1009.11 1009.84
1022.43 1021.67 1021.06 1020.06 1019.06 1018.85 1017.66 1016.27 1015.20 1014.07 1012.01 1010.25 1007.93 1005.72 1004.03 1003.67 1002.10 1000.82 1000.19 1000.70 1001.33 1001.89 1002.84 1003.53 1004.07 1004.77 1005.25 1005.75 1006.46 1007.24 1008.04 1008.72
1022.66 1021.79 1020.82 1019.77 1019.45 1019.26 1018.54 1017.30 1016.17 1014.54 1012.79 1011.14 1009.03 1007.37 1006.29 1005.00 1002.60 1000.63 999.57 1000.24 1000.91 1000.70 1001.59 1002.51 1003.38 1003.80 1004.64 1005.25 1005.83 1006.11 1006.52 1007.25
Wind_Speed
11 13 10 14 20 22 23 16 20 17 13 11 10 10 10 10 10 9 8 6 5 2 5 10 7 8 9 9 11 7 10 9
24 24 28 24 6 23 22 20 18 16 12 12 11 12 11 10 10 13 12 8 12 9 5 6 6 9 11 12 11 14 7 9
28 28 28 26 21 20 23 23 21 16 13 12 11 11 9 11 12 14 15 15 11 6 6 10 7 9 13 13 12 8 5 9
29 29 26 24 24 22 14 22 23 19 17 11 8 9 8 11 14 13 13 15 14 11 5 7 7 9 11 14 13 10 10 7
25 27 27 25 23 20 20 12 23 20 20 17 17 14 12 10 13 13 11 12 14 17 18 9 9 9 12 11 13 10 11 12
27 26 23 21 21 19 18 15 15 21 19 20 17 15 11 10 11 17 15 13 17 16 16 5 5 8 10 14 13 11 11 11
24 22 21 20 20 19 19 19 17 18 22 21 22 21 16 13 15 13 14 13 13 16 17 12 9 14 19 17 15 15 12 11
26 28 26 23 24 22 17 18 18 20 16 22 21 20 21 20 19 17 18 15 14 19 17 13 7 9 15 15 15 14 14 12
25 26 24 23 25 24 21 20 20 18 14 14 20 22 14 16 18 15 15 16 18 21 19 16 14 16 13 14 11 11 12 11
26 26 22 22 22 24 22 21 18 17 17 17 13 15 19 15 22 20 17 17 16 21 22 19 17 16 15 16 12 14 12 11
22 24 24 21 21 20 23 21 21 19 18 17 13 15 17 15 17 22 21 19 20 21 22 22 20 14 14 15 11 13 13 11
22 21 24 23 22 22 24 22 24 21 18 16 14 14 16 16 13 20 21 20 21 21 22 21 21 17 14 15 14 14 14 14
24 22 24 25 28 24 26 25 23 23 21 18 17 15 15 17 16 17 20 22 20 19 21 21 20 21 16 17 15 16 18 16
25 25 26 27 28 26 26 25 24 24 23 21 16 14 16 18 19 15 17 21 20 19 21 22 20 20 20 18 18 16 17 17
22 24 25 25 26 26 26 26 25 24 24 21 16 14 17 18 17 15 18 17 20 19 21 21 22 20 20 19 18 15 14 13
20 23 23 24 26 27 27 28 26 24 23 22 20 13 14 18 15 17 15 17 16 18 19 20 20 19 15 19 19 18 15 16
18 18 20 22 26 27 24 29 27 23 19 21 18 15 12 15 13 17 14 17 18 16 15 20 20 16 19 20 18 16 18 15
16 14 14 15 21 20 25 24 26 21 20 19 20 17 15 13 14 15 20 16 16 19 17 15 19 20 21 24 23 16 16 16
12 10 12 12 14 17 21 20 24 20 19 19 19 17 15 15 17 10 15 14 14 14 17 17 15 17 20 21 22 21 17 18
Wind_Direction
327 311 256 217 168 172 173 163 159 152 157 158 164 167 162 164 164 172 176 171 137 182 166 184 167 143 134 136 135 133 133 128
5 11 8 346 193 167 172 160 163 148 153 165 168 172 161 158 157 166 161 183 197 200 167 185 162 146 145 148 140 138 111 131
356 360 4 356 329 177 169 168 165 167 159 165 170 171 166 162 162 167 177 192 227 184 159 199 178 145 154 147 152 140 118 163
352 356 359 353 0 347 193 166 167 170 161 143 164 159 160 167 171 176 182 184 181 210 232 215 175 152 162 158 163 160 154 186
353 354 354 353 347 343 346 225 167 168 163 156 163 176 168 169 174 177 179 191 161 189 213 244 188 157 162 169 171 169 161 169
353 350 349 345 344 347 339 319 204 169 172 170 169 169 174 157 173 173 182 181 182 191 213 227 189 162 179 176 180 173 173 169
353 347 346 345 347 352 349 343 313 195 179 171 172 167 171 163 170 172 184 185 191 206 209 216 164 184 201 181 176 171 174 178
357 354 353 352 353 350 352 350 332 324 210 181 168 161 168 172 170 178 175 186 191 206 201 214 208 195 179 171 176 177 174 176
1 358 353 351 356 354 352 355 335 333 346 276 185 170 165 176 177 181 183 184 193 197 203 204 204 213 183 171 174 184 183 181
359 1 0 359 356 352 351 351 347 343 308 313 239 193 180 174 178 188 186 188 192 194 201 199 205 198 185 175 178 186 189 189
356 3 3 3 360 353 347 357 346 330 329 327 226 212 200 186 177 187 188 190 194 188 197 195 201 190 174 176 182 189 189 194
353 355 5 8 6 359 359 348 352 343 319 315 272 205 209 204 181 188 190 187 191 188 194 196 198 195 183 179 185 187 188 190
352 351 1 6 9 3 359 357 349 341 334 316 294 209 206 207 206 190 189 186 191 187 190 194 197 195 189 182 181 187 192 194
355 357 4 3 1 0 359 352 346 346 339 328 318 225 205 211 211 194 184 187 187 191 191 195 198 197 193 197 188 189 191 192
358 2 0 3 359 356 354 350 348 346 342 338 320 295 217 215 207 192 190 186 189 192 191 193 199 197 196 196 198 195 196 194
360 1 356 357 360 356 353 350 348 340 344 341 334 330 334 215 204 192 198 194 194 192 192 195 198 197 195 195 197 199 197 203
353 355 3 356 2 355 344 348 342 334 340 346 339 329 347 315 209 204 191 191 198 197 190 194 195 201 188 187 190 193 201 199
345 342 354 3 4 349 346 342 336 330 342 352 350 359 353 326 285 227 199 188 189 197 196 191 197 199 191 187 187 193 194 201
332 332 331 355 1 357 349 336 334 332 341 343 0 358 356 348 325 263 218 215 199 188 191 193 197 202 194 191 191 199 194 196